OneWeb SL0135

operational
NORAD ID: 47259 Int'l Des: 2020-100 Owner: ONEWEB Country: UK Constellation: oneweb
LEOCIRCULARPOLARONEWEB_TYPE

Über OneWeb SL0135

Beschreibung wird geladen...

Live-Position

3D-Globus wird geladen...

Nächste Überflüge

Höhenverlauf

Altitude vs Time

uPlot chart will show altitude changes over time

Zweizeiliger Elementsatz

1 47259U 20100B 25350.17348395 .00000460 00000-0 12409-2 0 9993
2 47259 87.8938 27.0085 0001682 94.2498 265.8822 13.12503664240557
Epoch: 16. Dez. 2025 • Age: 21 hours

Aktueller Status

Höhe 1229.4 km
Geschwindigkeit 7.24 km/s
Subsatellitenpunkt -39.58°S, 101.58°E
Startdatum 18. Dez. 2020
Alter 4.9 years
Typ internet

Technische Details

Klassifizierung Payload
Masse 148.00 kg
Trockenmasse 140.00 kg
Gesamtmasse 148.00 kg
Länge 1.30 m
Durchmesser 1.00 m
Spannweite 5.00 m
Form Trapezoid+2 pan
Hersteller ONEWUS
Bus-Typ ARROW
Phasenstatus In Orbit
Besitzer/Staat ONEWEB/UK

Große Konstellationen

Loading constellations...